Vertical_Velocity
3 4 2 3 5 0 3 5 5 4 -1 -1 -0 -0 -1 -2 -2 -3 -3 -2 -1 2
-2 -1 -0 3 4 -1 2 4 6 3 -3 -0 -3 -3 -1 -3 -1 -4 -4 3 1 -2
-1 0 2 2 1 3 1 -2 -1 2 5 2 1 -1 -1 -2 -1 1 2 -3 3 1
-2 -4 -2 -4 -1 -4 -4 -2 -1 -0 -1 0 0 3 1 3 1 0 1 -3 -1 2
2 3 1 1 1 -1 2 2 1 2 1 2 -1 -1 2 2 -1 2 3 2 2 2
4 1 -0 2 3 1 2 1 0 -1 -3 -3 -4 -1 2 1 4 1 0 1 -1 1
-0 5 3 5 4 3 2 1 6 0 -2 -4 4 -2 -3 6 -1 2 3 4 10 4
7 1 -0 8 4 3 2 16 6 7 4 4 12 6 11 9 8 13 6 10 2 4
1 4 7 13 8 8 9 3 13 25 23 18 5 14 2 -0 1 3 1 -1 -2 -1
3 14 13 9 4 6 10 4 1 -4 0 -2 -5 -2 2 2 2 -1 -0 -2 -0 -2
-2 1 -1 -1 -3 -3 -4 -7 -4 -0 1 1 3 2 1 -0 -0 1 3 1 -1 3
1 -1 0 -0 -0 -0 1 -1 -1 1 1 -0 -1 -1 3 -0 1 -1 1 0 4 3
-1 -1 0 1 2 1 2 1 1 1 2 -1 0 2 2 0 3 2 -1 -5 -5 -4
2 1 0 2 2 2 2 2 1 -1 -1 -5 -4 2 3 4 -5 -2 -0 -2 -0 -1
Height
5613 5620 5628 5636 5643 5653 5661 5669 5673 5679 5684 5691 5697 5702 5706 5710 5714 5716 5718 5719 5718 5717
5603 5609 5616 5624 5631 5640 5650 5656 5663 5668 5675 5681 5687 5692 5696 5699 5702 5703 5704 5705 5704 5703
5594 5601 5606 5614 5622 5631 5640 5647 5654 5660 5666 5672 5676 5680 5682 5685 5688 5689 5691 5691 5691 5690
5586 5592 5597 5604 5614 5624 5634 5640 5646 5651 5656 5661 5665 5668 5670 5673 5674 5676 5676 5677 5677 5676
5583 5588 5594 5602 5610 5619 5626 5632 5637 5641 5645 5649 5654 5657 5659 5661 5663 5664 5664 5664 5664 5665
5588 5590 5594 5600 5606 5612 5618 5623 5628 5632 5636 5640 5643 5647 5650 5652 5653 5654 5654 5653 5653 5654
5592 5595 5597 5600 5604 5609 5613 5618 5623 5626 5629 5634 5638 5640 5642 5643 5643 5644 5643 5643 5641 5641
5597 5599 5600 5603 5607 5609 5612 5614 5618 5622 5625 5627 5629 5632 5632 5632 5633 5632 5632 5632 5630 5630
5599 5600 5603 5604 5607 5609 5612 5613 5615 5617 5618 5620 5621 5622 5621 5621 5622 5622 5622 5622 5622 5621
5600 5601 5603 5604 5603 5604 5606 5607 5608 5610 5611 5612 5614 5615 5616 5616 5615 5615 5614 5613 5612 5611
5599 5600 5601 5601 5601 5602 5603 5603 5606 5607 5608 5608 5608 5608 5608 5607 5606 5605 5603 5601 5600 5598
5599 5599 5599 5599 5599 5600 5600 5601 5601 5601 5602 5602 5602 5601 5600 5598 5596 5594 5592 5589 5586 5584
5597 5597 5596 5596 5595 5595 5595 5595 5595 5595 5594 5593 5592 5590 5588 5585 5582 5579 5577 5574 5571 5568
5592 5592 5591 5591 5590 5589 5588 5587 5586 5584 5582 5580 5578 5576 5573 5570 5567 5565 5561 5556 5552 5547